EW1033 Weather Reports


Display with metric or nautical units.
time (UTC)temp
F
wind
direction
speed
MPH
gust
MPH
rain 1hr
in
rain 24hr
in
rain mn
in
humidity
%
barometer
mb
20260504044537 74 0.0 0.0 0.00 0.00 0.00 26 1008.5
20260504043039 74 0.0 0.0 0.00 0.00 0.00 25 1008.3
20260504041535 75 0.0 0.0 0.00 0.00 0.00 24 1008.2
20260504040034 76 0.0 0.0 0.00 0.00 0.00 23 1007.8
20260504034533 77 0.0 0.0 0.00 0.00 0.00 22 1007.4
20260504033035 77 0.0 0.0 0.00 0.00 0.00 21 1007.1
20260504031533 78 0.0 0.0 0.00 0.00 0.00 19 1006.9
20260504030032 79 0.0 0.0 0.00 0.00 0.00 18 1006.4
20260504024540 80 0.0 0.0 0.00 0.00 0.00 17 1006.1
20260504023030 81 0.0 0.0 0.00 0.00 0.00 16 1005.5
20260504021530 82 0.0 0.0 0.00 0.00 0.00 14 1005.2
20260504020029 83 0.0 0.0 0.00 0.00 0.00 13 1005.0
20260504014527 83 0.0 0.0 0.00 0.00 0.00 13 1004.9
20260504013036 84 0.0 0.0 0.00 0.00 0.00 13 1004.7
20260504011527 85 0.0 0.0 0.00 0.00 0.00 13 1004.9
20260504010026 86 0.0 0.0 0.00 0.00 0.00 13 1005.0
20260504004526 86 0.0 0.0 0.00 0.00 0.00 13 1005.1
20260504003037 87 0.0 0.0 0.00 0.00 0.00 13 1005.0
20260504001524 89 0.0 0.0 0.00 0.00 0.00 13 1004.9
20260504000023 89 0.0 0.0 0.00 0.00 0.00 13 1004.7
20260503234521 90 0.0 0.0 0.00 0.00 0.00 13 1004.5
20260503233018 90 0.0 0.0 0.00 0.00 0.00 14 1004.5
20260503231518 90 0.0 0.0 0.00 0.00 0.00 14 1004.4
20260503230021 91 0.0 0.0 0.00 0.00 0.00 14 1004.6
20260503224524 91 0.0 0.0 0.00 0.00 0.00 14 1004.8
20260503223012 92 0.0 0.0 0.00 0.00 0.00 14 1004.9
20260503221509 90 0.0 0.0 0.00 0.00 0.00 15 1005.0
20260503220015 89 0.0 0.0 0.00 0.00 0.00 19 1005.0
20260503214502 89 0.0 0.0 0.00 0.00 0.00 20 1005.3
20260503213101 88 0.0 0.0 0.00 0.00 0.00 23 1005.6
20260503211604 89 0.0 0.0 0.00 0.00 0.00 23 1005.9
20260503210054 88 0.0 0.0 0.00 0.00 0.00 24 1006.1
20260503204554 86 0.0 0.0 0.00 0.00 0.00 25 1006.4
20260503203050 86 0.0 0.0 0.00 0.00 0.00 25 1006.7
20260503201547 86 0.0 0.0 0.00 0.00 0.00 25 1006.9
20260503200044 86 0.0 0.0 0.00 0.00 0.00 24 1007.2
20260503194546 86 0.0 0.0 0.00 0.00 0.00 24 1007.3
20260503193042 87 0.0 0.0 0.00 0.00 0.00 21 1007.3
20260503191539 85 0.0 0.0 0.00 0.00 0.00 27 1007.6
20260503190035 84 0.0 0.0 0.00 0.00 0.00 28 1007.9
20260503184539 83 0.0 0.0 0.00 0.00 0.00 28 1008.3
20260503183027 83 0.0 0.0 0.00 0.00 0.00 29 1008.5
20260503181526 84 0.0 0.0 0.00 0.00 0.00 29 1008.8
20260503180024 82 0.0 0.0 0.00 0.00 0.00 30 1008.9
20260503174529 82 0.0 0.0 0.00 0.00 0.00 30 1009.1
20260503173026 82 0.0 0.0 0.00 0.00 0.00 30 1009.3
20260503171519 82 0.0 0.0 0.00 0.00 0.00 30 1009.3
20260503090120 73 0.0 0.0 0.00 0.00 0.00 37 1008.9
20260503081507 74 0.0 0.0 0.00 0.00 0.00 35 1009.2
20260503071612 75 0.0 0.0 0.00 0.00 0.00 33 1009.5